Location: ????????
(55.4000°N, 39.1167°E)
Time: 07:06:29
(UTC+00:00)

Cosmos 1953 - Pass Details

Date: 19 May 2025
Orbit: 485 x 502 km, 82.5° (Epoch: 15 June)

Event Time Altitude Azimuth Distance (km) Brightness Sun altitude
Rises 22:17:56 0° 352° (N) 2,572 7.1 -13.6°
Reaches altitude 10° 22:20:09 10° 0° (N) 1,687 6.1 -13.5°
Maximum altitude 22:23:38 40° 71° (ENE) 742 3.3 -13.4°
Drops below altitude 10° 22:27:07 10° 143° (SE) 1,679 4.4 -13.3°
Enters shadow 22:27:12 10° 143° (SE) 1,715 4.5 -13.3°
